Location: San Antonio
(29.4240°N, 98.4930°W)
Time: 12:10:23
(UTC-05:00)

ISS - All Passes

Search period start: 31 October 2014 00:00
Search period end: 09 November 2014 23:00
Orbit: 412 x 417 km, 51.6° (Epoch: 31 October)

Date Brightness Start Highest point End Pass type
(mag) Time Alt. Az. Time Alt. Az. Time Alt. Az.
31 Oct - 09:35:06 10° SSW 09:38:02 30° SE 09:40:58 10° ENE daylight
31 Oct - 11:12:25 10° W 11:14:44 18° NW 11:17:04 10° N daylight
31 Oct - 17:45:02 10° NNW 17:47:51 25° NE 17:50:40 10° E daylight
31 Oct - 19:21:55 10° WNW 19:24:24 19° SW 19:26:52 10° S visible
01 Nov - 08:47:04 10° SSE 08:49:00 15° SE 08:50:57 10° E daylight
01 Nov - 10:22:27 10° WSW 10:25:27 31° NW 10:28:27 10° NNE daylight
01 Nov - 16:56:35 10° N 16:58:31 15° NE 17:00:28 10° ENE daylight
01 Nov - 18:32:11 10° WNW 18:35:20 40° SW 18:38:28 10° SSE daylight
02 Nov - 08:32:55 10° SW 08:36:12 66° NW 08:39:30 10° NE daylight
02 Nov - 16:42:50 10° NW 16:46:10 88° NE 16:49:29 10° SE daylight
03 Nov - 07:43:45 10° SSW 07:46:59 54° SE 07:50:13 10° NE daylight
03 Nov - 09:22:33 10° WNW 09:23:53 12° NW 09:25:14 10° N daylight
03 Nov - 15:53:43 10° NNW 15:56:53 40° NE 16:00:02 10° ESE daylight
03 Nov - 17:32:05 10° WSW 17:33:14 11° SW 17:34:24 10° SW daylight
04 Nov - 06:55:02 10° S 06:57:47 25° SE 07:00:34 10° ENE daylight
04 Nov - 08:31:53 10° W 08:34:25 20° NW 08:36:58 10° NNE daylight
04 Nov - 15:04:51 10° NNW 15:07:30 21° NE 15:10:08 10° E daylight
04 Nov - 16:41:23 10° WNW 16:44:06 23° SW 16:46:48 10° S daylight
05 Nov - 06:07:13 10° SSE 06:08:37 12° SE 06:10:01 10° E visible
05 Nov - 07:41:53 10° WSW 07:44:59 37° NW 07:48:06 10° NNE daylight
05 Nov - 14:16:26 10° N 14:17:59 13° NE 14:19:31 10° ENE daylight
05 Nov - 15:51:37 10° NW 15:54:51 50° SW 15:58:04 10° SSE daylight
06 Nov - 06:52:18 10° SW 06:55:36 82° NW 06:58:54 10° NE daylight
06 Nov - 15:02:11 10° NW 15:05:30 71° NE 15:08:48 10° SE daylight
07 Nov - 06:03:06 10° SSW 06:06:14 43° SE 06:09:24 10° ENE visible
07 Nov - 07:41:16 10° WNW 07:43:03 14° NW 07:44:51 10° N daylight
07 Nov - 14:13:00 10° NNW 14:16:03 33° NE 14:19:05 10° ESE daylight
07 Nov - 15:50:38 10° W 15:52:27 14° SW 15:54:16 10° SSW daylight
08 Nov - 05:14:23 10° S 05:16:54 20° SE 05:19:25 10° ENE visible
08 Nov - 06:50:42 10° W 06:53:26 24° NW 06:56:11 10° NNE daylight
08 Nov - 13:24:04 10° N 13:26:28 18° NE 13:28:52 10° E daylight
08 Nov - 15:00:13 10° WNW 15:03:08 28° SW 15:06:02 10° S daylight
09 Nov - 06:00:41 10° WSW 06:03:52 46° NW 06:07:05 10° NNE visible
09 Nov - 12:35:52 10° NNE 12:36:46 11° NE 12:37:40 10° NE daylight
09 Nov - 14:10:25 10° NW 14:13:43 64° SW 14:16:59 10° SSE daylight
